Terminal Aerodrome Forecast
Issued by NWS

Home | Current Version | Previous Version | Text Only | Print | Product List | Glossary On
Versions: 1 2 3 4 5 6 7 8 9 10 11 12 13 14 15 16 17 18 19 20 21 22 23 24 25 26 27 28 29 30 31 32 33 34 35 36 37 38 39 40 41 42 43 44 45 46 47 48
567
FTUS46 KEKA 210205 AAA
TAFACV
TAF AMD
KACV 210205Z 2102/2124 14009KT 6SM -RA BR SCT015 OVC020
      WS020/22035KT
      TEMPO 2102/2104 2SM RA BKN015
     FM210600 14008KT 5SM -RA BR SCT020 BKN030
     FM211200 15010KT 6SM BR SCT030 OVC050
     FM211800 13010KT 3SM -RA BR SCT020 BKN050 WS020/20045KT=

USA.gov is the U.S. government's official web portal to all federal, state and local government web resources and services.